Tracking 18980 objects as of 21-Feb-2018
HD Live streaming from Space Station
objects crossing your sky now

NOAA 16 DEB

Track NOAA 16 DEB now!
10-day predictions


NORAD ID: 41503
Int'l Code: 2000-055MB
Perigee: 805.5 km
Apogee: 856.2 km
Inclination: 98.8 °
Period: 101.4 minutes
Semi major axis: 7201 km
RCS: Unknown
Launch date: September 21, 2000
Source: United States (US)
Launch site: AIR FORCE WESTERN TEST RANGE (AFWTR)

Note: This is SATELLITE DEBRIS
aabbcc
Your satellite tracking list
Your tracking list is empty




NASA's NSSDC Master Catalog

Two Line Element Set (TLE):
1 41503U 00055MB  18051.44427181 +.00000811 +00000-0 +39614-3 0  9995
2 41503 098.8103 131.1276 0035185 309.3883 050.4179 14.20481557101602
Source of the keplerian elements: AFSPC